{"data":{"norad_id":53177,"epoch":"2026-05-25T00:46:43.134816Z","epoch_age_seconds":75435,"freshness":"FRESH","line1":"1 53177U 22083AX  26145.03244369  .00000759  00000+0  65736-4 0  9998","line2":"2 53177  53.2146 156.3912 0001110  67.6746 292.4363 15.08843982213229","mean_motion":15.08843982,"eccentricity":0.000111,"inclination_deg":53.2146,"raan_deg":156.3912,"arg_perigee_deg":67.6746,"mean_anomaly_deg":292.4363,"bstar":6.5736e-5,"rev_number":21322,"period_min":95.437302807892,"perigee_km":538.96333423774,"apogee_km":540.49910098205,"semimajor_km":6917.8682176099,"source":"CELESTRAK","updated_at":"2026-05-25T13:38:17.325356Z"}}